[[{"header":{"parameterUnit":"m.s-1","parameterCategory":1,"la1":30.2991,"la2":30.254,"lo1":-89.0895,"lo2":-89.0444,"dy":0.0017,"dx":0.0017,"nx":28,"ny":28,"refTime":"2025-09-11T03:00:00:Z","depth":0,"parameterNumber":2,"parameterNumberName":"U-component_of_WINDS"},"data":[0,0,0,0,0,0,0,0,0,0,0,0,0,0,0,0,0,0,0,0,0,0,0,0,0,0,0,0,0,0,0,0,0,0,0,0,0,0,0,0,0,0,0,0,0,0,0,0,0,0,0,0,0,0,0,0,0,0,-0.1003,-0.1002,0,-0.0997,-0.0997,-0.0997,-0.0952,-0.095,-0.0949,-0.0948,-0.0945,-0.0946,-0.0947,0,0,0,0,0,0,0,0,0,0,0,0,0,-0.0975,-0.0976,-0.1003,-0.1002,-0.1002,-0.0997,-0.0997,-0.0997,-0.0952,-0.095,-0.0949,-0.0948,-0.0944,-0.0946,-0.0947,0,0,0,0,0,0,0,0,0,0,0,0,0,-0.098,-0.0976,-0.1003,-0.0979,-0.0977,-0.0997,-0.0997,-0.0997,-0.0952,-0.095,-0.0949,-0.0947,-0.0944,-0.0945,-0.0947,-0.099,0,0,-0.0951,-0.0952,0,0,0,0,0,0,0,0,-0.098,-0.0981,-0.0983,-0.0981,-0.0978,-0.0973,-0.0986,-0.0995,-0.0952,-0.0962,-0.0948,-0.0946,-0.0956,-0.0956,-0.0959,-0.0989,-0.0989,-0.0951,-0.0952,-0.0953,-0.0953,0,0,0,0,0,0,0,-0.098,-0.0981,-0.1,-0.0983,-0.098,-0.0969,-0.0968,-0.0987,-0.0968,-0.0961,-0.0957,-0.0957,-0.0954,-0.0958,-0.0958,-0.0989,-0.0951,-0.0953,-0.0953,-0.0954,-0.1054,-0.1056,0,0,0,0,0,0,-0.0982,-0.0981,-0.1001,-0.1,-0.0975,-0.0971,-0.097,-0.0977,-0.0968,-0.0965,-0.0959,-0.0955,-0.0956,-0.0957,-0.0958,-0.1007,-0.0953,-0.0954,-0.0955,-0.1052,-0.1054,-0.1056,0,0,0,0,0,0,-0.0982,-0.0985,-0.1001,-0.099,-0.0991,-0.0973,-0.0981,-0.0977,-0.0981,-0.0966,-0.0963,-0.0966,-0.0955,-0.0956,-0.0982,-0.1007,-0.0955,-0.0956,-0.105,-0.1053,-0.1055,-0.1106,0,0,0,0,0,0,-0.0981,-0.0985,-0.1001,-0.0991,-0.0992,-0.1024,-0.0983,-0.0979,-0.0983,-0.0978,-0.0972,-0.0969,-0.0953,-0.098,-0.0983,-0.1008,-0.0957,-0.1048,-0.1051,-0.1054,-0.1102,-0.111,-0.1117,0,0,0,0,0,-0.0981,-0.1016,-0.1002,-0.1004,-0.1011,-0.1026,-0.1027,-0.1007,-0.0985,-0.1001,-0.0992,-0.0969,-0.1003,-0.0983,-0.0986,-0.1011,-0.1046,-0.105,-0.1054,-0.1099,-0.1109,-0.1117,0,0,0,0,0,0,-0.103,-0.1014,-0.0998,-0.1031,-0.103,-0.1018,-0.1038,-0.1018,-0.1024,-0.102,-0.0996,-0.0995,-0.1024,-0.102,-0.0998,-0.1052,-0.1021,-0.1026,-0.1054,-0.1063,-0.107,-0.1071,-0.0958,0,0,0,0,0,-0.1045,-0.1057,-0.1043,-0.1073,-0.1073,-0.1056,-0.1062,-0.1046,-0.1045,-0.1044,-0.1037,-0.1037,-0.1047,-0.1055,-0.1064,-0.1101,-0.1099,-0.112,-0.1128,-0.1134,-0.1139,-0.1158,-0.1167,-0.107,-0.1069,-0.1069,0,0,-0.1075,-0.1068,-0.1078,-0.1083,-0.1081,-0.1095,-0.1056,-0.1073,-0.1083,-0.1047,-0.1071,-0.1065,-0.1063,-0.1095,-0.1109,-0.1093,-0.1165,-0.1139,-0.1144,-0.1145,-0.1163,-0.1172,-0.118,-0.1072,-0.1072,-0.1071,0,0,-0.1138,-0.1134,-0.1159,-0.1157,-0.1153,-0.1141,-0.1147,-0.1137,-0.1132,-0.1155,-0.1128,-0.1141,-0.1159,-0.1159,-0.1161,-0.1223,-0.1202,-0.1226,-0.1266,-0.1285,-0.1292,-0.1299,-0.1321,-0.1329,-0.1231,-0.1231,-0.1231,0,-0.1177,-0.1197,-0.1174,-0.1192,-0.1195,-0.1162,-0.1187,-0.1186,-0.1186,-0.1189,-0.1171,-0.1193,-0.119,-0.1221,-0.1236,-0.1239,-0.1245,-0.1227,-0.1293,-0.13,-0.1305,-0.1326,-0.1335,-0.1234,-0.1234,-0.1233,-0.1233,0,-0.1245,-0.1259,-0.1279,-0.1278,-0.1284,-0.1305,-0.1286,-0.1294,-0.1278,-0.1268,-0.1292,-0.1286,-0.1293,-0.1299,-0.1285,-0.1328,-0.1318,-0.1297,-0.1265,-0.1318,-0.1337,-0.1345,-0.1238,-0.1237,-0.1236,-0.1236,0,0,-0.134,-0.1325,-0.1333,-0.1332,-0.1325,-0.1336,-0.1356,-0.1362,-0.1369,-0.137,-0.1386,-0.1402,-0.1382,-0.1384,-0.1369,-0.1386,-0.1435,-0.1362,-0.1362,-0.1376,-0.1483,-0.1499,-0.1509,-0.1421,-0.1423,-0.1424,-0.1483,0,-0.14,-0.1433,-0.1412,-0.1448,-0.1461,-0.1429,-0.1447,-0.1444,-0.1435,-0.1445,-0.1435,-0.1447,-0.1419,-0.142,-0.1435,-0.1426,-0.1456,-0.1421,-0.1437,-0.1437,-0.1438,-0.1519,-0.1536,-0.1592,-0.149,-0.1491,-0.1492,0,-0.1475,-0.1478,-0.1515,-0.1505,-0.1509,-0.1525,-0.1529,-0.1538,-0.1535,-0.1527,-0.1529,-0.151,-0.1529,-0.1497,-0.1523,-0.15,-0.1505,-0.1501,-0.1502,-0.1504,-0.1468,-0.1522,-0.161,-0.1619,-0.1504,-0.1503,-0.1502,0,-0.1541,-0.1554,-0.1578,-0.1578,-0.1567,-0.1578,-0.1574,-0.1569,-0.1574,-0.1577,-0.158,-0.1585,-0.1589,-0.1594,-0.1576,-0.1555,-0.1605,-0.1571,-0.1599,-0.16,-0.1611,-0.1611,-0.1702,-0.1614,-0.1614,-0.1614,-0.1614,0,-0.1611,-0.1635,-0.1607,-0.1622,-0.1647,-0.1624,-0.165,-0.1643,-0.1638,-0.1651,-0.1624,-0.1637,-0.1613,-0.1623,-0.161,-0.1633,-0.1635,-0.163,-0.1626,-0.1632,-0.1633,-0.1635,-0.1631,-0.1616,-0.1616,-0.1615,-0.1615,0,-0.1689,-0.1671,-0.1695,-0.1682,-0.1679,-0.1698,-0.1687,-0.1701,-0.1689,-0.1706,-0.1708,-0.1691,-0.1701,-0.1684,-0.1693,-0.1684,-0.1717,-0.1707,-0.1718,-0.1715,-0.1744,-0.1741,-0.1839,-0.1851,-0.1756,-0.1757,-0.1758,0,-0.1735,-0.1752,-0.1741,-0.1747,-0.1744,-0.1755,-0.1759,-0.1736,-0.1742,-0.1739,-0.1752,-0.1761,-0.1766,-0.1785,-0.1773,-0.178,-0.177,-0.1804,-0.1771,-0.1777,-0.1771,-0.177,-0.1772,-0.1811,-0.1812,-0.1813,-0.1814,0,-0.1819,-0.1809,-0.1815,-0.1819,-0.1824,-0.1826,-0.1826,-0.1833,-0.1809,-0.1816,-0.1826,-0.1831,-0.1839,-0.1848,-0.1851,-0.1848,-0.1827,-0.1824,-0.1831,-0.1838,-0.1843,-0.1841,-0.1736,-0.1822,-0.1821,-0.1821,-0.182,-0.182,-0.1882,-0.1896,-0.1889,-0.1897,-0.1895,-0.1895,-0.1907,-0.1896,-0.1904,-0.1908,-0.1895,-0.1908,-0.1904,-0.1906,-0.1905,-0.1915,-0.19,-0.191,-0.1913,-0.1916,-0.192,-0.1841,-0.1916,-0.1916,-0.1915,-0.1915,-0.1915,0,-0.1964,-0.1958,-0.1966,-0.1966,-0.1972,-0.1951,-0.195,-0.1957,-0.1968,-0.1966,-0.1971,-0.1983,-0.1991,-0.198,-0.1986,-0.1996,-0.1987,-0.1999,-0.1998,-0.1998,-0.1933,-0.1927,-0.2006,-0.2006,-0.2006,-0.2006,-0.2006,-0.2006,-0.2008,-0.203,-0.2019,-0.2039,-0.2033,-0.2045,-0.2046,-0.2047,-0.2044,-0.2058,-0.2064,-0.2056,-0.205,-0.2056,-0.2062,-0.2059,-0.2062,-0.2078,-0.2071,-0.2011,-0.2002,-0.1994,-0.1987,-0.2078,-0.2079,-0.2134,-0.2135,-0.2135]},{"header":{"parameterUnit":"m.s-1","parameterCategory":1,"la1":30.2991,"la2":30.254,"lo1":-89.0895,"lo2":-89.0444,"dy":0.0017,"dx":0.0017,"nx":28,"ny":28,"refTime":"2025-09-11T03:00:00:Z","depth":0,"parameterNumber":3,"parameterNumberName":"V-component_of_WINDS"},"data":[0,0,0,0,0,0,0,0,0,0,0,0,0,0,0,0,0,0,0,0,0,0,0,0,0,0,0,0,0,0,0,0,0,0,0,0,0,0,0,0,0,0,0,0,0,0,0,0,0,0,0,0,0,0,0,0,0,0,-1.0855,-1.0856,0,-1.098,-1.0981,-1.0983,-1.1041,-1.104,-1.104,-1.104,-1.1169,-1.1173,-1.1176,0,0,0,0,0,0,0,0,0,0,0,0,0,-1.0666,-1.0669,-1.0855,-1.0856,-1.0858,-1.098,-1.0981,-1.0983,-1.1041,-1.104,-1.104,-1.104,-1.1168,-1.1172,-1.1177,0,0,0,0,0,0,0,0,0,0,0,0,0,-1.0765,-1.067,-1.0854,-1.0901,-1.0907,-1.0979,-1.0982,-1.0984,-1.1041,-1.104,-1.104,-1.104,-1.1167,-1.1172,-1.1177,-1.1213,0,0,-1.1193,-1.1196,0,0,0,0,0,0,0,0,-1.076,-1.0772,-1.0893,-1.0898,-1.0904,-1.0994,-1.0962,-1.1061,-1.1041,-1.099,-1.104,-1.104,-1.1111,-1.1121,-1.1145,-1.1219,-1.1225,-1.1194,-1.1197,-1.1199,-1.1201,0,0,0,0,0,0,0,-1.0753,-1.0767,-1.0904,-1.0894,-1.0901,-1.0916,-1.093,-1.0981,-1.105,-1.0994,-1.0999,-1.1013,-1.1115,-1.114,-1.1149,-1.1227,-1.1194,-1.1198,-1.1202,-1.1204,-1.1337,-1.1338,0,0,0,0,0,0,-1.0738,-1.0761,-1.09,-1.0908,-1.083,-1.092,-1.0935,-1.0966,-1.105,-1.1062,-1.1013,-1.1015,-1.1131,-1.1142,-1.1153,-1.1201,-1.1199,-1.1204,-1.1207,-1.1337,-1.1337,-1.1338,0,0,0,0,0,0,-1.0734,-1.075,-1.0895,-1.0836,-1.0855,-1.0923,-1.0957,-1.0968,-1.0994,-1.1064,-1.1076,-1.1026,-1.1131,-1.1146,-1.1198,-1.1207,-1.1207,-1.1212,-1.1336,-1.1337,-1.1337,-1.1297,0,0,0,0,0,0,-1.0728,-1.0748,-1.0762,-1.0836,-1.0858,-1.0937,-1.0957,-1.0971,-1.1003,-1.1007,-1.1079,-1.1091,-1.1132,-1.119,-1.1203,-1.1214,-1.1216,-1.1336,-1.1337,-1.1337,-1.1298,-1.1296,-1.1295,0,0,0,0,0,-1.0721,-1.0746,-1.0763,-1.0779,-1.0878,-1.0938,-1.0951,-1.0997,-1.1003,-1.1018,-1.1063,-1.1089,-1.1203,-1.1195,-1.121,-1.1223,-1.1336,-1.1336,-1.1337,-1.1299,-1.1297,-1.1295,0,0,0,0,0,0,-1.0672,-1.0757,-1.0776,-1.0825,-1.0874,-1.0947,-1.0968,-1.0993,-1.1042,-1.1044,-1.1099,-1.1115,-1.1162,-1.1198,-1.1187,-1.1262,-1.1272,-1.1276,-1.1237,-1.1236,-1.1234,-1.1225,-1.122,0,0,0,0,0,-1.0667,-1.0709,-1.078,-1.0817,-1.0841,-1.09,-1.0928,-1.0959,-1.1012,-1.1033,-1.1082,-1.1132,-1.118,-1.121,-1.1257,-1.1303,-1.132,-1.132,-1.1318,-1.1316,-1.1319,-1.1347,-1.1347,-1.134,-1.134,-1.134,0,0,-1.0658,-1.0709,-1.0732,-1.0809,-1.085,-1.0892,-1.0917,-1.096,-1.0992,-1.104,-1.1092,-1.1129,-1.1189,-1.1238,-1.1263,-1.1269,-1.1325,-1.1317,-1.1315,-1.132,-1.1347,-1.1348,-1.1349,-1.1341,-1.1341,-1.1341,0,0,-1.0661,-1.0704,-1.0739,-1.078,-1.0842,-1.0881,-1.089,-1.0959,-1.0986,-1.1039,-1.1075,-1.1114,-1.1195,-1.1236,-1.1267,-1.1286,-1.1312,-1.13,-1.1292,-1.1318,-1.1318,-1.1319,-1.1326,-1.1328,-1.1303,-1.1302,-1.1302,0,-1.0641,-1.0706,-1.0754,-1.0796,-1.0829,-1.0873,-1.091,-1.0947,-1.1021,-1.1043,-1.1049,-1.1151,-1.1195,-1.1254,-1.1259,-1.1283,-1.1294,-1.1292,-1.1314,-1.1315,-1.1317,-1.1324,-1.1327,-1.1301,-1.1301,-1.1301,-1.1301,0,-1.0679,-1.0723,-1.0744,-1.0814,-1.085,-1.0888,-1.0943,-1.0973,-1.1001,-1.1039,-1.1093,-1.1146,-1.1205,-1.1222,-1.125,-1.1286,-1.1288,-1.1303,-1.1314,-1.1315,-1.1323,-1.1326,-1.1298,-1.1299,-1.1299,-1.13,0,0,-1.0656,-1.0752,-1.0759,-1.0792,-1.0863,-1.0898,-1.0939,-1.0996,-1.1021,-1.1071,-1.1107,-1.1173,-1.1188,-1.1224,-1.1257,-1.1279,-1.1291,-1.1293,-1.1295,-1.1291,-1.1334,-1.1322,-1.1325,-1.1308,-1.1309,-1.131,-1.1329,0,-1.067,-1.0745,-1.0789,-1.0846,-1.0887,-1.093,-1.0965,-1.1013,-1.105,-1.1091,-1.1132,-1.1178,-1.1194,-1.1216,-1.124,-1.1284,-1.1301,-1.1284,-1.1343,-1.1344,-1.1327,-1.1329,-1.1316,-1.1332,-1.1332,-1.1333,-1.1333,0,-1.0696,-1.0745,-1.0805,-1.0872,-1.0891,-1.0922,-1.0978,-1.1017,-1.1072,-1.1097,-1.1136,-1.1169,-1.1214,-1.1221,-1.1284,-1.1271,-1.1298,-1.1323,-1.1325,-1.1333,-1.1339,-1.1337,-1.1338,-1.1341,-1.1339,-1.1338,-1.1338,0,-1.0674,-1.0754,-1.0801,-1.0827,-1.0906,-1.0927,-1.0961,-1.1016,-1.1047,-1.1096,-1.1118,-1.1171,-1.1201,-1.1242,-1.1288,-1.1289,-1.1347,-1.1357,-1.1369,-1.1368,-1.138,-1.1379,-1.1386,-1.1396,-1.1396,-1.1396,-1.1396,0,-1.0685,-1.0721,-1.0792,-1.0821,-1.0862,-1.0912,-1.0952,-1.0989,-1.1037,-1.1074,-1.1114,-1.1148,-1.1208,-1.1249,-1.1286,-1.1332,-1.1345,-1.1367,-1.1377,-1.1364,-1.1361,-1.1383,-1.1383,-1.1397,-1.1397,-1.1396,-1.1396,0,-1.0668,-1.0717,-1.0771,-1.084,-1.0859,-1.0886,-1.0946,-1.0976,-1.1014,-1.1061,-1.1074,-1.1135,-1.1186,-1.1236,-1.1305,-1.133,-1.1375,-1.1388,-1.1357,-1.1362,-1.1371,-1.137,-1.1393,-1.1399,-1.1404,-1.1404,-1.1404,0,-1.0672,-1.07,-1.0773,-1.08,-1.0833,-1.0877,-1.0909,-1.096,-1.0992,-1.1057,-1.1078,-1.1132,-1.1177,-1.1256,-1.1307,-1.1359,-1.1374,-1.1378,-1.1382,-1.1368,-1.1374,-1.1372,-1.1376,-1.1377,-1.1376,-1.1376,-1.1376,0,-1.0674,-1.0697,-1.0742,-1.0795,-1.0832,-1.0877,-1.0923,-1.0943,-1.1003,-1.1037,-1.1089,-1.1124,-1.1193,-1.1246,-1.1304,-1.134,-1.1368,-1.1374,-1.138,-1.1368,-1.1348,-1.1359,-1.1353,-1.1374,-1.1374,-1.1374,-1.1374,-1.1374,-1.0668,-1.0695,-1.0751,-1.0799,-1.0839,-1.0881,-1.0912,-1.0954,-1.0999,-1.1059,-1.1086,-1.1138,-1.1193,-1.1274,-1.1309,-1.1351,-1.1358,-1.1366,-1.1368,-1.137,-1.1367,-1.1341,-1.1361,-1.1361,-1.1362,-1.1362,-1.1362,0,-1.0673,-1.0711,-1.0755,-1.0817,-1.0856,-1.0878,-1.093,-1.0961,-1.1006,-1.1054,-1.1098,-1.1158,-1.1209,-1.1263,-1.1317,-1.1341,-1.1355,-1.1353,-1.1352,-1.136,-1.1357,-1.1347,-1.1341,-1.1341,-1.1341,-1.1341,-1.1341,-1.1341,-1.068,-1.0727,-1.0756,-1.0823,-1.0861,-1.0912,-1.094,-1.0979,-1.1017,-1.1082,-1.1125,-1.1159,-1.121,-1.1269,-1.1317,-1.1331,-1.135,-1.1344,-1.1363,-1.1359,-1.136,-1.1362,-1.1353,-1.1348,-1.1348,-1.1363,-1.1363,-1.1363]}]]